| time (UTC) | temp C | wind direction | speed KPH | gust KPH | rain 1hr cm | rain 24hr cm | rain mn cm | humidity % | barometer mb |
| 20260507093037 | 1 | 202 | 1.6 | 4.8 | 0.00 | 0.00 | 0.00 | 54 | 1012.4 |
| 20260507091504 | 1 | 205 | 0.0 | 1.6 | 0.00 | 0.00 | 0.00 | 54 | 1012.6 |
| 20260507090046 | 1 | 205 | 0.0 | 8.0 | 0.00 | 0.00 | 0.00 | 54 | 1012.6 |
| 20260507084521 | 1 | 360 | 1.6 | 8.0 | 0.00 | 0.00 | 0.00 | 54 | 1012.7 |
| 20260507083049 | 1 | 202 | 3.2 | 8.0 | 0.00 | 0.00 | 0.00 | 55 | 1012.8 |
| 20260507081520 | 1 | 360 | 3.2 | 8.0 | 0.00 | 0.00 | 0.00 | 51 | 1012.8 |
| 20260507080105 | 0 | 198 | 0.0 | 1.6 | 0.00 | 0.00 | 0.00 | 52 | 1012.8 |
| 20260507074544 | 0 | 198 | 0.0 | 8.0 | 0.00 | 0.00 | 0.00 | 53 | 1013.1 |
| 20260507073007 | 0 | 136 | 0.0 | 3.2 | 0.00 | 0.00 | 0.00 | 53 | 1013.3 |
| 20260507071547 | 0 | 135 | 1.6 | 8.0 | 0.00 | 0.00 | 0.00 | 53 | 1013.6 |
| 20260507070018 | 0 | 149 | 3.2 | 8.0 | 0.00 | 0.00 | 0.00 | 52 | 1013.7 |
| 20260507064556 | 0 | 144 | 1.6 | 4.8 | 0.00 | 0.00 | 0.00 | 53 | 1014.0 |
| 20260507063028 | 0 | 145 | 1.6 | 6.4 | 0.00 | 0.00 | 0.00 | 51 | 1014.4 |
| 20260507061608 | 0 | 151 | 1.6 | 8.0 | 0.00 | 0.00 | 0.00 | 51 | 1014.6 |
| 20260507060046 | 0 | 153 | 0.0 | 4.8 | 0.00 | 0.00 | 0.00 | 51 | 1014.7 |
| 20260507054510 | 1 | 202 | 0.0 | 3.2 | 0.00 | 0.00 | 0.00 | 50 | 1015.0 |
| 20260507053053 | 1 | 207 | 0.0 | 1.6 | 0.00 | 0.00 | 0.00 | 49 | 1015.2 |
| 20260507051533 | 1 | 206 | 0.0 | 0.0 | 0.00 | 0.00 | 0.00 | 49 | 1015.2 |
| 20260507050104 | 1 | 207 | 0.0 | 0.0 | 0.00 | 0.00 | 0.00 | 48 | 1015.4 |
| 20260507044533 | 2 | 211 | 0.0 | 0.0 | 0.00 | 0.00 | 0.00 | 46 | 1015.6 |
| 20260507043006 | 2 | 209 | 0.0 | 1.6 | 0.00 | 0.00 | 0.00 | 44 | 1015.7 |
| 20260507041547 | 3 | 207 | 0.0 | 3.2 | 0.00 | 0.00 | 0.00 | 43 | 1015.8 |
| 20260507040017 | 3 | 360 | 0.0 | 4.8 | 0.00 | 0.00 | 0.00 | 41 | 1015.9 |
| 20260507034602 | 4 | 360 | 0.0 | 1.6 | 0.00 | 0.00 | 0.00 | 39 | 1016.0 |
| 20260507033034 | 5 | 360 | 0.0 | 0.0 | 0.00 | 0.00 | 0.00 | 39 | 1016.1 |
| 20260507031504 | 5 | 360 | 0.0 | 1.6 | 0.00 | 0.00 | 0.00 | 37 | 1016.3 |
| 20260507030046 | 6 | 360 | 0.0 | 1.6 | 0.00 | 0.00 | 0.00 | 37 | 1016.3 |
| 20260507024528 | 6 | 360 | 0.0 | 0.0 | 0.00 | 0.00 | 0.00 | 34 | 1016.4 |
| 20260507023100 | 7 | 360 | 0.0 | 1.6 | 0.00 | 0.00 | 0.00 | 34 | 1016.3 |
| 20260507021535 | 7 | 360 | 0.0 | 0.0 | 0.00 | 0.00 | 0.00 | 32 | 1016.3 |
| 20260507020109 | 8 | 360 | 0.0 | 0.0 | 0.00 | 0.00 | 0.00 | 29 | 1016.2 |
| 20260507014540 | 10 | 360 | 0.0 | 0.0 | 0.00 | 0.00 | 0.00 | 24 | 1016.2 |
| 20260507013005 | 11 | 360 | 0.0 | 3.2 | 0.00 | 0.00 | 0.00 | 24 | 1016.1 |
| 20260507011546 | 11 | 360 | 0.0 | 1.6 | 0.00 | 0.00 | 0.00 | 23 | 1016.2 |
| 20260507010017 | 12 | 265 | 0.0 | 9.7 | 0.00 | 0.00 | 0.00 | 22 | 1016.4 |
| 20260507004551 | 12 | 264 | 1.6 | 8.0 | 0.00 | 0.00 | 0.00 | 19 | 1016.4 |
| 20260507003021 | 13 | 263 | 3.2 | 12.9 | 0.00 | 0.00 | 0.00 | 19 | 1016.6 |
| 20260507001603 | 13 | 263 | 3.2 | 17.7 | 0.00 | 0.00 | 0.00 | 18 | 1016.6 |
| 20260507000031 | 13 | 258 | 1.6 | 12.9 | 0.00 | 0.00 | 0.00 | 19 | 1016.8 |
| 20260506234621 | 13 | 281 | 4.8 | 16.1 | 0.00 | 0.00 | 0.00 | 18 | 1016.9 |
| 20260506233038 | 13 | 267 | 6.4 | 17.7 | 0.00 | 0.00 | 0.00 | 17 | 1017.1 |
| 20260506231506 | 13 | 255 | 3.2 | 14.5 | 0.00 | 0.00 | 0.00 | 19 | 1017.1 |
| 20260506230052 | 13 | 258 | 8.0 | 19.3 | 0.00 | 0.00 | 0.00 | 18 | 1017.2 |
| 20260506224518 | 13 | 290 | 3.2 | 17.7 | 0.00 | 0.00 | 0.00 | 19 | 1017.3 |
| 20260506223059 | 13 | 275 | 3.2 | 20.9 | 0.00 | 0.00 | 0.00 | 18 | 1017.5 |
| 20260506221524 | 13 | 279 | 4.8 | 16.1 | 0.00 | 0.00 | 0.00 | 21 | 1017.7 |
| 20260506214532 | 13 | 306 | 4.8 | 16.1 | 0.00 | 0.00 | 0.00 | 18 | 1018.1 |
| 20260506213112 | 13 | 259 | 4.8 | 22.5 | 0.00 | 0.00 | 0.00 | 17 | 1018.1 |
| 20260506211547 | 13 | 285 | 4.8 | 17.7 | 0.00 | 0.00 | 0.00 | 20 | 1018.3 |
| 20260506210014 | 13 | 244 | 1.6 | 11.3 | 0.00 | 0.00 | 0.00 | 19 | 1018.5 |
| 20260506204555 | 13 | 301 | 8.0 | 22.5 | 0.00 | 0.00 | 0.00 | 21 | 1018.8 |
| 20260506203020 | 14 | 360 | 3.2 | 16.1 | 0.00 | 0.00 | 0.00 | 20 | 1019.1 |
| 20260506201555 | 12 | 360 | 6.4 | 25.7 | 0.00 | 0.00 | 0.00 | 20 | 1019.1 |
| 20260506200029 | 12 | 360 | 1.6 | 9.7 | 0.00 | 0.00 | 0.00 | 20 | 1019.4 |
| 20260506194607 | 12 | 360 | 3.2 | 16.1 | 0.00 | 0.00 | 0.00 | 22 | 1019.4 |
| 20260506193040 | 12 | 360 | 3.2 | 17.7 | 0.00 | 0.00 | 0.00 | 24 | 1019.7 |
| 20260506191512 | 12 | 360 | 4.8 | 19.3 | 0.00 | 0.00 | 0.00 | 21 | 1019.6 |
| 20260506190051 | 12 | 360 | 6.4 | 22.5 | 0.00 | 0.00 | 0.00 | 21 | 1019.9 |
| 20260506184524 | 12 | 244 | 8.0 | 19.3 | 0.00 | 0.00 | 0.00 | 20 | 1020.0 |
| 20260506181537 | 11 | 360 | 3.2 | 17.7 | 0.00 | 0.00 | 0.00 | 24 | 1020.3 |
| 20260506180007 | 11 | 360 | 6.4 | 22.5 | 0.00 | 0.00 | 0.00 | 23 | 1020.4 |
| 20260506174555 | 10 | 360 | 6.4 | 17.7 | 0.00 | 0.00 | 0.00 | 23 | 1020.6 |
| 20260506173025 | 11 | 360 | 4.8 | 20.9 | 0.00 | 0.00 | 0.00 | 23 | 1020.6 |
| 20260506171539 | 10 | 360 | 6.4 | 22.5 | 0.00 | 0.00 | 0.00 | 23 | 1020.7 |
| 20260506170059 | 10 | 360 | 1.6 | 16.1 | 0.00 | 0.00 | 0.00 | 26 | 1020.8 |
| 20260506164524 | 11 | 360 | 6.4 | 16.1 | 0.00 | 0.00 | 0.00 | 24 | 1021.1 |
| 20260506163114 | 10 | 360 | 8.0 | 30.6 | 0.00 | 0.00 | 0.00 | 26 | 1021.1 |
| 20260506161539 | 10 | 303 | 6.4 | 25.7 | 0.00 | 0.00 | 0.00 | 25 | 1021.0 |
| 20260506160006 | 10 | 264 | 3.2 | 17.7 | 0.00 | 0.00 | 0.00 | 27 | 1021.1 |
| 20260506154548 | 10 | 360 | 4.8 | 20.9 | 0.00 | 0.00 | 0.00 | 26 | 1021.0 |
| 20260506153016 | 10 | 301 | 6.4 | 16.1 | 0.00 | 0.00 | 0.00 | 27 | 1021.2 |
| 20260506151556 | 9 | 321 | 6.4 | 17.7 | 0.00 | 0.00 | 0.00 | 29 | 1021.1 |
| 20260506150023 | 8 | 305 | 9.7 | 19.3 | 0.00 | 0.00 | 0.00 | 30 | 1021.1 |
| 20260506144613 | 8 | 306 | 4.8 | 14.5 | 0.00 | 0.00 | 0.00 | 33 | 1021.1 |
| 20260506143039 | 8 | 282 | 4.8 | 16.1 | 0.00 | 0.00 | 0.00 | 34 | 1021.3 |
| 20260506141505 | 7 | 360 | 1.6 | 8.0 | 0.00 | 0.00 | 0.00 | 39 | 1021.5 |
| 20260506140057 | 6 | 360 | 1.6 | 8.0 | 0.00 | 0.00 | 0.00 | 45 | 1021.4 |
| 20260506134510 | 4 | 360 | 1.6 | 12.9 | 0.00 | 0.00 | 0.00 | 47 | 1021.3 |
| 20260506133109 | 3 | 360 | 0.0 | 6.4 | 0.00 | 0.00 | 0.00 | 50 | 1021.3 |
| 20260506131532 | 2 | 360 | 0.0 | 6.4 | 0.00 | 0.00 | 0.00 | 52 | 1021.3 |
| 20260506130140 | 1 | 360 | 0.0 | 3.2 | 0.00 | 0.00 | 0.00 | 54 | 1021.3 |
| 20260506124528 | 0 | 360 | 0.0 | 6.4 | 0.00 | 0.00 | 0.00 | 54 | 1021.1 |
| 20260506123111 | 0 | 360 | 0.0 | 1.6 | 0.00 | 0.00 | 0.00 | 55 | 1021.0 |
| 20260506121549 | -1 | 317 | 0.0 | 1.6 | 0.00 | 0.00 | 0.00 | 55 | 1020.7 |
| 20260506120118 | -2 | 319 | 0.0 | 1.6 | 0.00 | 0.00 | 0.00 | 56 | 1020.5 |
| 20260506114526 | -3 | 319 | 0.0 | 1.6 | 0.00 | 0.00 | 0.00 | 56 | 1020.1 |
| 20260506111536 | -3 | 319 | 0.0 | 0.0 | 0.00 | 0.00 | 0.00 | 55 | 1019.6 |
| 20260506110116 | -3 | 316 | 0.0 | 0.0 | 0.00 | 0.00 | 0.00 | 56 | 1019.6 |
| 20260506104554 | -3 | 316 | 0.0 | 0.0 | 0.00 | 0.00 | 0.00 | 56 | 1019.6 |
| 20260506103016 | -3 | 315 | 0.0 | 0.0 | 0.00 | 0.00 | 0.00 | 56 | 1019.4 |
| 20260506101558 | -3 | 315 | 0.0 | 0.0 | 0.00 | 0.00 | 0.00 | 54 | 1019.3 |
| 20260506100031 | -2 | 315 | 0.0 | 0.0 | 0.00 | 0.00 | 0.00 | 55 | 1019.2 |
| 20260506094608 | -1 | 316 | 0.0 | 0.0 | 0.00 | 0.00 | 0.00 | 55 | 1019.0 |